Regional Weather Roundup
Issued by NWS Albany, NY

Home | Current Version | Previous Version | Text Only | Print | Product List | Glossary On
Versions: 1 2 3 4 5 6 7 8 9 10 11 12 13 14 15 16 17 18 19 20 21 22 23 24 25 26 27 28 29 30 31 32 33 34 35 36 37 38 39 40 41 42 43 44 45 46 47 48 49 50
000
ASUS41 KALY 241510
RWRALY

NEW YORK STATE HOURLY WEATHER ROUNDUP
NATIONAL WEATHER SERVICE ALBANY NY
1100 AM EDT SUN MAY 24 2015

NOTE: "FAIR" INDICATES FEW OR NO CLOUDS BELOW 12,000 FEET WITH NO
SIGNIFICANT WEATHER AND/OR NO OBSTRUCTIONS TO VISIBILITY.

NYZ032-033-038>043-046>054-057>066-NYZ062>081-241600-
EAST


CITY           SKY/WX    TMP DP  RH WIND       PRES   REMARKS
ALBANY         MOSUNNY   71  41  33 SW6       30.27F
GLENS FALLS    SUNNY     72  37  28 W9G18     30.23F
POUGHKEEPSIE   SUNNY     72  39  30 SW8       30.30F
MONTGOMERY     SUNNY     73  44  35 SW8G20    30.31F
WHITE PLAINS   SUNNY     70  41  34 SW6       30.33F
ISLIP          PTSUNNY   69  49  48 S15       30.33F
NEW YORK CITY  PTSUNNY   73  42  32 SW10      30.34F
CENTRAL PARK   SUNNY     72  44  36 SW5       30.37F
$$

NYZ005>009-017-018-044>046-055-056-241600-
CENTRAL


CITY           SKY/WX    TMP DP  RH WIND       PRES   REMARKS
FULTON         MOSUNNY   73  42  32 W8        30.26F
SYRACUSE       PTSUNNY   73  40  30 W10       30.27F
ROME           SUNNY     68  41  37 VRB6      30.28F
ELMIRA         SUNNY     71  42  35 SW8       30.30F
BINGHAMTON     SUNNY     67  41  38 W8        30.32F
MONTICELLO     SUNNY     66  43  42 W12       30.36S
$$

NYZ026>034-041>043-241600-
NORTH


CITY           SKY/WX    TMP DP  RH WIND       PRES   REMARKS
WATERTOWN      MOSUNNY   66  35  31 W15G24    30.24F
FORT DRUM      NOT AVBL
MASSENA        PTSUNNY   67  40  37 SW16G26   30.17F
SARANAC LAKE   CLOUDY    65  34  31 SW12G24   30.20S
PLATTSBURGH    CLOUDY    60  43  53 SE5       30.16S
$$

NYZ001>004-010>016-019>021-241600-
WEST


CITY           SKY/WX    TMP DP  RH WIND       PRES   REMARKS
NIAGARA FALLS  PTSUNNY   70  42  36 SW14      30.26F
BUFFALO        PTSUNNY   70  38  31 SW15      30.27F
DUNKIRK        SUNNY     74  43  32 SW13G21   30.29S
JAMESTOWN      SUNNY     66  43  42 SW8       30.33F
WELLSVILLE     SUNNY     69  40  34 W13       30.35F
ROCHESTER      PTSUNNY   74  42  31 SW9       30.26F
PENN YAN       MOSUNNY   72  40  31 SW9       30.29F
$$

             KEY
       WCI = WIND CHILL INDEX
       VSB = VISIBILITY
       HX  = HEAT INDEX
$$


USA.gov is the U.S. government's official web portal to all federal, state and local government web resources and services.